Time,TemperatureF,DewpointF,PressureIn,WindDirection,WindDirectionDegrees,WindSpeedMPH,WindSpeedGustMPH,Humidity,HourlyPrecipIn,Conditions,Clouds,dailyrainin,SoftwareType,DateUTC
2013-02-18 15:53:00,55.0,48.0,29.85,South,178,16.0,22.0,76,0.02,,,0.03,,2013-02-18 21:53:00,
2013-02-18 16:02:00,55.0,48.0,29.85,SSE,167,18.0,20.0,77,0.01,,,0.04,,2013-02-18 22:02:00,
2013-02-18 16:12:00,55.0,49.0,29.84,SSW,193,8.0,18.0,81,0.04,,,0.07,,2013-02-18 22:12:00,
2013-02-18 16:22:00,55.0,49.0,29.84,SSW,193,8.0,18.0,81,0.04,,,0.07,,2013-02-18 22:22:00,
2013-02-18 16:33:00,54.0,49.0,29.83,South,188,8.0,25.0,82,0.04,,,0.07,,2013-02-18 22:33:00,
2013-02-18 16:42:00,54.0,49.0,29.83,South,188,8.0,25.0,82,0.04,,,0.07,,2013-02-18 22:42:00,
2013-02-18 16:52:00,54.0,49.0,29.81,South,188,11.0,20.0,82,0.04,,,0.07,,2013-02-18 22:52:00,
2013-02-18 17:02:00,54.0,48.0,29.79,SSW,207,8.0,20.0,81,0.03,,,0.07,,2013-02-18 23:02:00,
2013-02-18 17:12:00,54.0,48.0,29.79,SSW,207,8.0,20.0,81,0.03,,,0.07,,2013-02-18 23:12:00,
2013-02-18 17:22:00,54.0,48.0,29.78,South,174,7.0,19.0,81,0.00,,,0.07,,2013-02-18 23:22:00,
2013-02-18 17:33:00,54.0,48.0,29.78,NE,55,8.0,16.0,80,0.00,,,0.07,,2013-02-18 23:33:00,
2013-02-18 17:42:00,54.0,48.0,29.78,NE,55,8.0,16.0,80,0.00,,,0.07,,2013-02-18 23:42:00,
2013-02-18 17:52:00,54.0,48.0,29.78,SSE,162,15.0,16.0,81,0.01,,,0.08,,2013-02-18 23:52:00,
2013-02-18 18:02:00,53.0,49.0,29.78,South,182,4.0,13.0,87,0.07,,,0.14,,2013-02-19 00:02:00,
2013-02-18 18:12:00,53.0,49.0,29.78,South,182,4.0,13.0,87,0.07,,,0.14,,2013-02-19 00:12:00,
2013-02-18 18:22:00,53.0,50.0,29.79,SSW,194,5.0,15.0,88,0.12,,,0.19,,2013-02-19 00:22:00,
2013-02-18 18:33:00,52.0,49.0,29.78,SSE,148,2.0,10.0,90,0.16,,,0.23,,2013-02-19 00:33:00,
2013-02-18 18:43:00,52.0,49.0,29.78,SSE,148,2.0,10.0,90,0.16,,,0.23,,2013-02-19 00:43:00,
2013-02-18 18:53:00,52.0,49.0,29.79,SW,216,4.0,9.0,91,0.16,,,0.24,,2013-02-19 00:53:00,
2013-02-18 19:03:00,52.0,50.0,29.82,South,180,3.0,11.0,92,0.20,,,0.34,,2013-02-19 01:03:00,
2013-02-18 19:13:00,52.0,50.0,29.82,South,180,3.0,11.0,92,0.20,,,0.34,,2013-02-19 01:13:00,
2013-02-18 19:23:00,52.0,50.0,29.82,SSW,197,5.0,7.0,92,0.18,,,0.37,,2013-02-19 01:23:00,
2013-02-18 19:33:00,52.0,50.0,29.83,SSW,210,3.0,5.0,93,0.17,,,0.40,,2013-02-19 01:33:00,
2013-02-18 19:43:00,52.0,50.0,29.83,SSW,210,3.0,5.0,93,0.17,,,0.40,,2013-02-19 01:43:00,
2013-02-18 19:53:00,52.0,50.0,29.79,SSW,197,3.0,5.0,93,0.18,,,0.42,,2013-02-19 01:53:00,
2013-02-18 20:02:00,52.0,50.0,29.79,SSW,213,5.0,16.0,94,0.13,,,0.47,,2013-02-19 02:02:00,
2013-02-18 20:13:00,52.0,50.0,29.79,SSW,213,5.0,16.0,94,0.13,,,0.47,,2013-02-19 02:13:00,
2013-02-18 20:22:00,53.0,51.0,29.79,South,178,11.0,21.0,93,0.12,,,0.49,,2013-02-19 02:22:00,
2013-02-18 20:34:00,51.0,48.0,29.88,WSW,240,19.0,38.0,89,0.13,,,0.53,,2013-02-19 02:34:00,
2013-02-18 20:42:00,51.0,48.0,29.88,WSW,240,19.0,38.0,89,0.13,,,0.53,,2013-02-19 02:42:00,
2013-02-18 20:52:00,50.0,48.0,29.88,SW,221,14.0,24.0,92,0.14,,,0.56,,2013-02-19 02:52:00,
2013-02-18 21:05:00,50.0,48.0,29.86,South,171,13.0,19.0,94,0.13,,,0.60,,2013-02-19 03:05:00,
2013-02-18 21:13:00,50.0,48.0,29.86,South,171,13.0,19.0,94,0.13,,,0.60,,2013-02-19 03:13:00,
2013-02-18 21:23:00,50.0,48.0,29.86,South,183,14.0,14.0,94,0.14,,,0.63,,2013-02-19 03:23:00,
2013-02-18 21:33:00,50.0,48.0,29.86,South,171,13.0,13.0,94,0.15,,,0.66,,2013-02-19 03:33:00,
2013-02-18 21:43:00,50.0,48.0,29.86,South,171,13.0,13.0,94,0.15,,,0.66,,2013-02-19 03:43:00,
2013-02-18 21:52:00,51.0,49.0,29.86,ENE,78,5.0,15.0,94,0.14,,,0.70,,2013-02-19 03:52:00,
2013-02-18 22:02:00,51.0,49.0,29.85,SSW,202,7.0,13.0,94,0.15,,,0.75,,2013-02-19 04:02:00,
2013-02-18 22:13:00,51.0,49.0,29.85,SSW,202,7.0,13.0,94,0.15,,,0.75,,2013-02-19 04:13:00,
2013-02-18 22:23:00,51.0,50.0,29.87,SSW,194,18.0,18.0,95,0.14,,,0.77,,2013-02-19 04:23:00,
2013-02-18 22:33:00,52.0,50.0,29.88,SW,227,9.0,19.0,94,0.12,,,0.80,,2013-02-19 04:33:00,
2013-02-18 22:43:00,52.0,50.0,29.88,SW,227,9.0,19.0,94,0.12,,,0.80,,2013-02-19 04:43:00,
2013-02-18 22:52:00,52.0,50.0,29.89,SW,223,4.0,13.0,94,0.12,,,0.82,,2013-02-19 04:52:00,
2013-02-18 23:02:00,52.0,50.0,29.91,West,275,3.0,14.0,94,0.11,,,0.86,,2013-02-19 05:02:00,
2013-02-18 23:12:00,52.0,50.0,29.91,West,275,3.0,14.0,94,0.11,,,0.86,,2013-02-19 05:12:00,
2013-02-18 23:22:00,52.0,50.0,29.92,NNW,327,4.0,13.0,94,0.11,,,0.88,,2013-02-19 05:22:00,
2013-02-18 23:32:00,50.0,47.0,29.93,West,279,9.0,18.0,91,0.10,,,0.89,,2013-02-19 05:32:00,
2013-02-18 23:43:00,50.0,47.0,29.93,West,279,9.0,18.0,91,0.10,,,0.89,,2013-02-19 05:43:00,
2013-02-18 23:52:00,48.0,44.0,29.95,NNW,331,7.0,11.0,87,0.10,,,0.92,,2013-02-19 05:52:00,